Lid_Strength_Index
6 5 3 2 2 1 1 1 1 1 1 1 1 1 2 2 2 1 0 -1 2 4 3 3 3 4 3 4 5 4 5 5 5 8 9 8 8 7 8 7 8 8 9 9 9 10 12 5 5 8 6 4 4 4
6 5 4 3 3 2 2 1 1 1 1 1 2 2 2 2 2 2 2 -1 -1 3 4 1 1 1 2 2 3 3 5 5 4 6 5 6 7 7 8 10 6 9 7 9 8 9 5 4 4 3 4 5 4 4
7 6 4 4 3 3 2 2 1 2 2 2 2 2 1 1 1 1 1 -0 1 3 3 3 3 1 -0 0 -0 4 3 3 3 3 5 5 8 6 8 7 7 5 4 7 7 6 5 4 3 3 4 4 4 4
7 5 5 4 4 4 3 2 2 2 2 2 2 2 1 1 2 1 1 -1 1 2 6 5 0 2 -0 -0 1 1 2 1 2 2 5 5 6 4 6 6 7 5 5 6 6 5 4 4 3 4 4 3 4 4
6 5 5 4 4 4 3 3 3 2 2 3 3 2 1 1 2 0 -1 -1 -1 3 7 5 2 1 0 0 1 1 2 2 3 4 5 6 3 5 5 5 6 4 6 7 8 4 5 4 3 3 4 5 4 4
6 5 4 4 4 3 3 3 3 3 3 3 2 2 1 2 3 0 4 -0 -1 0 4 7 2 2 1 1 2 2 2 1 3 3 4 3 4 4 7 8 5 4 3 4 5 3 3 3 3 3 4 4 4 4
6 5 4 4 3 3 3 3 3 3 3 4 3 3 2 3 1 3 4 2 3 -1 4 7 6 2 1 2 2 2 2 2 3 4 4 4 4 4 6 9 5 5 3 3 3 3 4 3 4 3 3 3 3 4
5 5 4 4 4 3 3 3 3 3 3 4 4 3 3 4 3 2 0 3 1 2 2 8 7 5 2 4 5 2 4 3 3 4 3 5 4 5 8 5 4 4 3 3 3 2 3 2 3 3 2 3 4 4
5 5 4 4 4 3 3 3 3 3 4 4 4 3 1 2 3 1 2 3 -1 2 7 5 8 9 2 4 3 3 3 6 2 5 5 4 6 8 6 5 4 4 4 4 3 2 2 3 3 3 3 3 4 4
5 5 5 4 3 3 3 3 3 3 3 4 4 2 4 2 3 3 1 3 3 3 3 6 3 7 4 4 5 6 4 7 9 6 3 6 7 4 4 3 3 3 3 3 4 4 3 3 4 4 3 2 2 2
5 5 5 4 4 3 3 3 3 3 4 4 4 4 1 2 1 3 6 6 6 7 4 4 4 6 2 6 7 4 7 6 8 7 6 8 8 6 4 3 2 3 2 2 2 2 2 2 3 3 3 2 2 2
5 5 5 5 4 3 3 3 3 2 3 4 3 0 1 3 5 7 8 6 7 8 5 5 5 4 4 2 6 6 8 6 10 4 7 9 7 4 4 3 3 2 2 2 2 2 2 2 2 2 2 2 2 1
4 5 5 4 4 3 3 3 3 3 3 2 4 5 5 5 11 10 11 8 8 5 5 4 6 4 4 3 4 6 8 9 4 8 10 8 5 4 3 3 3 2 2 2 2 2 2 2 2 2 2 1 1 1
4 5 5 4 4 3 3 3 3 3 4 4 6 12 8 9 7 7 7 7 5 4 4 4 5 4 4 6 6 9 7 5 10 10 10 7 5 4 3 2 2 3 2 2 2 2 2 2 2 1 1 1 1 1
5 4 4 4 3 3 3 3 4 3 4 6 6 12 8 6 4 4 4 5 3 4 4 6 5 5 6 7 6 8 9 10 9 9 7 5 3 3 3 3 2 2 2 2 2 2 2 2 2 2 1 1 1 1
5 4 3 2 3 3 3 3 3 3 4 5 6 7 5 5 6 5 5 5 3 3 3 5 7 8 8 7 9 9 10 10 8 5 4 4 3 3 3 2 2 1 1 1 1 1 1 2 2 1 1 1 1 1
4 3 2 3 3 3 3 2 4 5 6 6 6 4 5 5 5 6 3 3 2 4 7 6 9 9 5 8 8 5 8 7 4 4 3 3 3 2 2 2 2 2 1 1 1 1 1 1 1 1 2 1 1 1
4 2 3 3 3 3 3 3 4 5 8 6 6 5 4 3 4 4 3 3 4 5 5 7 5 9 9 10 8 6 5 3 2 3 3 3 2 2 1 2 2 2 2 1 1 1 1 1 2 2 1 1 1 1
2 2 3 3 2 3 4 4 4 7 6 4 4 3 3 3 2 2 3 3 3 3 4 5 8 9 8 6 6 5 4 4 5 4 3 2 1 2 1 1 1 1 1 1 1 2 1 1 1 1 1 2 2 2
4 3 3 3 3 4 5 5 2 5 6 5 4 4 4 4 3 3 3 3 4 5 6 8 7 6 6 6 4 3 3 2 2 5 4 3 2 1 2 1 2 1 2 1 1 3 1 2 2 2 1 1 2 2
3 3 3 3 4 4 4 4 5 4 4 5 4 4 5 4 4 4 5 3 5 6 6 5 4 3 2 2 2 2 2 2 3 4 5 4 2 2 2 1 1 2 2 2 2 2 3 2 1 1 1 1 1 1
3 2 3 4 5 3 4 2 4 3 5 4 5 4 5 6 6 5 4 6 6 5 4 4 4 4 4 3 2 2 1 1 2 2 5 3 2 2 2 2 2 2 2 2 2 2 1 1 1 1 1 0 1 0
3 2 3 4 5 6 7 2 6 5 8 6 5 7 6 6 4 2 6 5 4 3 2 2 2 1 2 2 2 2 1 2 2 3 2 2 1 1 1 1 1 2 2 2 1 0 1 4 2 1 0 1 -0 0
3 3 5 6 6 8 5 7 6 7 6 7 7 8 7 6 5 7 8 5 4 3 3 2 2 3 3 3 3 3 2 2 2 3 2 2 2 2 1 1 1 1 0 1 1 0 -0 1 4 1 1 1 0 1
8 7 7 11 6 8 8 9 7 7 8 7 7 8 6 5 7 8 7 6 5 4 3 3 3 3 4 4 3 3 1 1 2 4 2 1 1 1 1 1 1 -0 -0 1 1 0 -0 1 1 1 1 1 2 2
11 6 9 8 8 9 8 9 8 8 7 8 7 5 5 6 8 8 6 5 5 4 4 3 3 4 3 3 3 3 2 1 1 3 2 1 1 2 2 2 2 2 -0 -1 0 0 0 1 1 2 1 2 6 2
10 8 5 3 5 5 6 6 5 6 8 8 7 7 7 9 9 6 4 3 3 2 1 2 2 3 3 2 1 1 1 1 1 1 0 0 0 0 1 1 2 1 -0 -1 -1 -0 1 2 1 1 1 1 1 1
6 6 8 6 6 5 7 7 7 8 7 5 6 8 8 8 7 5 3 1 1 0 1 1 1 2 2 1 1 1 1 1 0 0 0 0 0 -0 -0 -0 -1 7 -0 -1 -1 -1 -0 1 1 1 2 2 1 0
7 5 6 8 7 7 7 7 7 5 4 5 7 7 6 3 2 3 1 0 0 2 2 2 2 1 1 1 1 1 1 1 2 3 3 3 2 1 0 0 0 -0 -0 0 11 6 1 1 1 1 2 2 1 1
6 5 7 7 7 8 5 4 5 4 3 3 3 4 4 3 2 0 1 1 2 3 2 2 1 2 2 2 2 1 1 1 1 1 2 3 2 1 1 0 0 0 -0 0 0 1 9 4 5 2 2 1 1 2
4 5 6 6 7 5 4 3 3 3 3 3 3 3 4 3 2 1 1 1 2 2 2 2 2 1 2 2 2 2 2 1 0 0 0 1 0 -0 -0 -0 -0 -0 -0 0 0 0 1 2 2 2 2 1 1 3
5 6 6 7 7 4 3 5 5 5 4 4 4 3 3 3 4 2 1 1 2 2 3 2 2 2 1 0 -0 0 6 1 0 0 -0 0 0 -0 -0 -0 -0 -0 0 0 0 0 0 1 1 2 2 2 1 1
5 5 5 6 6 6 4 5 5 5 4 5 4 4 4 4 5 2 0 0 1 1 1 1 1 0 0 0 -0 0 3 -0 3 8 7 7 8 5 0 -0 -0 -0 0 0 0 0 1 1 1 1 2 1 1 1